Air Resources Laboratory banner image
Air Resources Laboratory web site National Oceanic and Atmospheric Administration (NOAA)

pa roundup


Office: CTP

ASUS41 KCTP 180703
RWRCTP

REGIONAL WEATHER ROUNDUP
NATIONAL WEATHER SERVICE STATE COLLEGE PA
200 AM EST SUN NOV 18 2018

Note: "fair" indicates few or no clouds below 12,000 feet with no
significant weather and/or obstructions to visibility.

* = STATION THAT DOES NOT REPORT PRECIPITATION /E.G. RAIN...SNOW...ETC/
    THUNDER OR FOG.

PAZ002>004-007>009-013>016-020>023-029>032-180800-
WESTERN PENNSYLVANIA

CITY           SKY/WX    TMP DP  RH WIND       PRES   REMARKS
ERIE           CLOUDY    35  27  72 SE5       30.29F
MEADVILLE      CLOUDY    31  29  92 E3        30.26S
FRANKLIN*      MIX PCPN  30  29  96 CALM      30.27S
NEW CASTLE     CLOUDY    34  32  92 CALM      30.28F
BEAVER COUNTY  NOT AVBL
BUTLER*        CLOUDY    33  32  96 NE5       30.27F
PITTSBURGH INT CLOUDY    34  32  92 NE7       30.26F
PITTSBURGH     CLOUDY    35  33  92 VRB3      30.25F
INDIANA*       CLOUDY    34  34 100 CALM      30.30F FOG
LATROBE        MOCLDY    36  36 100 CALM      30.27F
WASHINGTON CO* NOT AVBL
$$

PAZ004>006-010>012-017>019-024>028-033>037-041-042-045-046-049>053-180800-
CENTRAL PENNSYLVANIA

CITY           SKY/WX    TMP DP  RH WIND       PRES   REMARKS
BRADFORD       CLOUDY    26  25  96 CALM      30.24S
DUBOIS         CLOUDY    31  28  89 E5        30.25S
CLEARFIELD     CLOUDY    33  30  88 CALM      30.27S
JOHNSTOWN      CLOUDY    32  29  88 CALM      30.22S FOG
ALTOONA        CLOUDY    35  30  82 CALM      30.28S
STATE COLLEGE  NOT AVBL
WILLIAMSPORT   CLOUDY    35  33  92 CALM      30.31S
SELINSGROVE    CLOUDY    35  32  88 CALM      30.33R
FT INDIANTOWN  CLOUDY    39  29  69 NW6       30.31S
CAPITAL CITY   FAIR      34  29  82 SW3       30.33R
HARRISBURG     FAIR      34  30  85 CALM      30.32R
YORK           CLOUDY    29  28  96 CALM      30.32R
$$

PAZ038>040-043-044-047-048-054-055-060>062-067>071-180800-
EASTERN PENNSYLVANIA

CITY           SKY/WX    TMP DP  RH WIND       PRES   REMARKS
SCRANTON       CLOUDY    36  26  67 CALM      30.29S
MOUNT POCONO   CLOUDY    31  25  78 NW9       30.24S
ALLENTOWN      CLOUDY    38  31  76 NW3       30.32R
QUAKERTOWN*    MOSUNNY   32  30  93 CALM      30.31R
READING        FAIR      35  32  88 CALM      30.31R
LANCASTER      FAIR      37  31  78 NW3       30.32R
COATESVILLE    FAIR      34  30  86 CALM      30.32R
POTTSTOWN      FAIR      33  29  85 CALM      30.33R
BLUE BELL      FAIR      32  32 100 CALM      30.33S
DOYLESTOWN     FAIR      35  28  75 CALM      30.31R
WILLOW GROVE   NOT AVBL
NORTH PHILA    FAIR      39  30  70 NW5       30.33S
PHILADELPHIA   MOCLDY    36  29  75 CALM      30.33S
$$


ASUS41 KCTP 180710
RWRCTP

REGIONAL WEATHER ROUNDUP
NATIONAL WEATHER SERVICE STATE COLLEGE PA
200 AM EST SUN NOV 18 2018

Note: "fair" indicates few or no clouds below 12,000 feet with no
significant weather and/or obstructions to visibility.

* = STATION THAT DOES NOT REPORT PRECIPITATION /E.G. RAIN...SNOW...ETC/
    THUNDER OR FOG.

PAZ002>004-007>009-013>016-020>023-029>032-180800-
WESTERN PENNSYLVANIA

CITY           SKY/WX    TMP DP  RH WIND       PRES   REMARKS
ERIE           CLOUDY    35  27  72 SE5       30.29F
MEADVILLE      CLOUDY    31  29  92 E3        30.26S
FRANKLIN*      MIX PCPN  30  29  96 CALM      30.27S
NEW CASTLE     CLOUDY    34  32  92 CALM      30.28F
BEAVER COUNTY  NOT AVBL
BUTLER*        CLOUDY    33  32  96 NE5       30.27F
PITTSBURGH INT CLOUDY    34  32  92 NE7       30.26F
PITTSBURGH     CLOUDY    35  33  92 VRB3      30.25F
INDIANA*       CLOUDY    34  34 100 CALM      30.30F FOG
LATROBE        MOCLDY    36  36 100 CALM      30.27F
WASHINGTON CO* NOT AVBL
$$

PAZ004>006-010>012-017>019-024>028-033>037-041-042-045-046-049>053-180800-
CENTRAL PENNSYLVANIA

CITY           SKY/WX    TMP DP  RH WIND       PRES   REMARKS
BRADFORD       CLOUDY    26  25  96 CALM      30.24S
DUBOIS         CLOUDY    31  28  89 E5        30.25S
CLEARFIELD     CLOUDY    33  30  88 CALM      30.27S
JOHNSTOWN      CLOUDY    32  29  88 CALM      30.22S FOG
ALTOONA        CLOUDY    35  30  82 CALM      30.28S
STATE COLLEGE  NOT AVBL
WILLIAMSPORT   CLOUDY    35  33  92 CALM      30.31S
SELINSGROVE    CLOUDY    35  32  88 CALM      30.33R
FT INDIANTOWN  CLOUDY    39  29  69 NW6       30.31S
CAPITAL CITY   FAIR      34  29  82 SW3       30.33R
HARRISBURG     FAIR      34  30  85 CALM      30.32R
YORK           CLOUDY    29  28  96 CALM      30.32R
$$

PAZ038>040-043-044-047-048-054-055-060>062-067>071-180800-
EASTERN PENNSYLVANIA

CITY           SKY/WX    TMP DP  RH WIND       PRES   REMARKS
SCRANTON       CLOUDY    36  26  67 CALM      30.29S
MOUNT POCONO   CLOUDY    31  25  78 NW9       30.24S
ALLENTOWN      CLOUDY    38  31  76 NW3       30.32R
QUAKERTOWN*    MOSUNNY   32  30  93 CALM      30.31R
READING        FAIR      35  32  88 CALM      30.31R
LANCASTER      FAIR      37  31  78 NW3       30.32R
COATESVILLE    FAIR      34  30  86 CALM      30.32R
POTTSTOWN      FAIR      33  29  85 CALM      30.33R
BLUE BELL      FAIR      32  32 100 CALM      30.33S
DOYLESTOWN     FAIR      35  28  75 CALM      30.31R
WILLOW GROVE   NOT AVBL
NORTH PHILA    FAIR      39  30  70 NW5       30.33S
PHILADELPHIA   MOCLDY    36  29  75 CALM      30.33S
$$




Office: PHI ASUS41 KPHI 180712 RWRPHI REGIONAL WEATHER ROUNDUP NATIONAL WEATHER SERVICE MOUNT HOLLY NJ 200 AM EST SUN NOV 18 2018 NOTE: "FAIR" INDICATES FEW OR NO CLOUDS BELOW 12,000 FEET WITH NO SIGNIFICANT WEATHER AND/OR OBSTRUCTIONS TO VISIBILITY. * = STATION DOES NOT REPORT PRECIPITATION (E.G. RAIN, SNOW, ETC.) OR FOG. NJZ015>026-180800- SOUTHERN NEW JERSEY CITY SKY/WX TMP DP RH WIND PRES REMARKS POMONA FAIR 34 30 85 CALM 30.32S WILDWOOD* FAIR 35 32 88 CALM 30.34S MILLVILLE FAIR 28 27 96 CALM 30.33R FOG WRIGHTSTOWN MOCLDY 34 30 86 CALM 30.29R MOUNT HOLLY FAIR 32 29 88 CALM 30.32R TRENTON FAIR 36 29 75 CALM 30.32R $$ NJZ001>014-180800- NORTHERN NEW JERSEY CITY SKY/WX TMP DP RH WIND PRES REMARKS SUSSEX CLOUDY 38 26 62 CALM 30.30S ANDOVER* N/A 38 24 57 VRB3 30.30R MORRISTOWN CLOUDY 41 30 65 NW3 30.31R NEWARK CLOUDY 42 31 64 NW7 30.31R TETERBORO CLOUDY 41 28 60 N9 30.31R CALDWELL CLOUDY 40 27 59 VRB6 30.32R SOMERVILLE CLOUDY 37 32 82 NW3 30.30R ALLAIRE* FAIR 37 30 75 SW6 30.32R WCI 32 TOMS RIVER* FAIR 29 28 96 NW3 30.32S $$ PAZ043-044-047-054-055-060>062-066>071-180800- EASTERN PENNSYLVANIA CITY SKY/WX TMP DP RH WIND PRES REMARKS PHILADELPHIA MOCLDY 36 29 75 CALM 30.33S NORTH PHILA FAIR 39 30 70 NW5 30.33S BLUE BELL* FAIR 32 32 100 CALM 30.33S DOYLESTOWN FAIR 35 28 75 CALM 30.31R QUAKERTOWN* PTCLDY 32 30 93 CALM 30.31R PERKASIE* FAIR 32 32 100 CALM 30.32R POTTSTOWN FAIR 33 29 85 CALM 30.33R LANCASTER FAIR 37 31 78 NW3 30.32R COATESVILLE FAIR 34 30 86 CALM 30.32R READING FAIR 35 32 88 CALM 30.31R ALLENTOWN CLOUDY 38 31 76 NW3 30.32R MOUNT POCONO CLOUDY 31 25 78 NW9 30.24S WCI 23 LEHIGHTON CLOUDY 36 32 87 CALM 30.32R WILKES BARRE CLOUDY 36 26 67 CALM 30.29S $$ DEZALL-MDZ008-012-015-019-020-180800- DELAWARE AND EASTERN MARYLAND CITY SKY/WX TMP DP RH WIND PRES REMARKS WILMINGTON FAIR 33 29 85 NW3 30.34S DOVER FAIR 36 30 78 CALM 30.33R GEORGETOWN FAIR 34 31 88 CALM 30.34S FOG PATUXENT FAIR 34 33 96 W3 30.34 FOG OCEAN CITY FAIR 32 30 92 N5 30.34S WCI 27 WALLOPS ISLAND FAIR 33 30 88 NW3 30.35R SALISBURY FAIR 31 30 96 CALM 30.34R $$ PAZ001-021-NYZ056-072-MDZ011-DCZ001-180800- OTHER NEARBY LOCATIONS CITY SKY/WX TMP DP RH WIND PRES REMARKS HARRISBURG FAIR 34 30 85 CALM 30.32R WILLIAMSPORT CLOUDY 35 33 92 CALM 30.31S BINGHAMTON CLOUDY 28 22 78 N8 30.27R WCI 20 NEW YORK CITY CLOUDY 41 28 60 MISG 30.33R BALTIMORE FAIR 30 29 96 CALM 30.33S WASHINGTON DC MOCLDY 38 32 79 CALM 30.35S $$